Вернуться в каталог

STARLINK-5800

АктивенСвязьVLEO
NORAD 56041·PAYLOAD·🇺🇸 United States

Запущен Mar 24, 2023 с Cape Canaveral Space Force Station

Loading…

Ближайшие Пролёты (ближайшие 24 часа)

TLE

СвежийSource: CelesTrak SupGP

Эпоха: Sep 14, 2026, 20:48 UTC

1 56041C 23042BH  26257.86715278  .00060425  00000+0  21888-2 0  2575
2 56041  43.0026  45.6127 0001436 272.9866 180.0037 15.27545801    10

Отслеживайте STARLINK-5800 в реальном времени с AllMySat

Download on the App Store